Regional Weather Roundup
Issued by NWS Wakefield, VA

Home | Current Version | Previous Version | Graphics & Text | Print | Product List | Glossary On
Versions: 1 2 3 4 5 6 7 8 9 10 11 12 13 14 15 16 17 18 19 20 21 22 23 24 25 26 27 28 29 30 31 32 33 34 35 36 37 38 39 40 41 42 43 44 45 46 47 48 49 50
000
ASUS41 KAKQ 280010
RWRAKQ

REGIONAL WEATHER ROUNDUP
NATIONAL WEATHER SERVICE WAKEFIELD VA
800 PM EDT SUN JUL 27 2014

Note: "fair" indicates few or no clouds below 12,000 feet with no
significant weather and/or obstructions to visibility. * = Denotes
station may not report precipitation (e.g., rain,snow,etc.),
thunder or fog.

VAZ042-051-052>054-056-280100-
NORTHERN VIRGINIA

CITY           SKY/WX    TMP DP  RH WIND       PRES   REMARKS
WASH NATIONAL  MOCLDY    83  71  67 SW12      29.70F
DULLES         PTCLDY    79  71  76 S8        29.70S
FORT BELVOIR   DRIZZLE   81  73  76 VRB3      29.71R
QUANTICO       CLEAR     82  71  69 SW8       29.71S
FREDERICKSBRG* CLEAR     82  73  72 SW9G16    29.71S
STAFFORD*      CLEAR     80  78  94 SW7       29.76S
WARRENTON      CLEAR     80  76  85 SW7       29.71S
CULPEPER*      PTCLDY   N/A N/A N/A SW7       29.72R
MANASSAS*      CLEAR     81  72  74 SW6       29.71S
LEESBURG*      PTCLDY    81  73  78 SW7       29.70F
WINCHESTER     MOCLDY    79  70  73 S3        29.70F
$$

VAZ048-049-060>072-079>083-280100-
CENTRAL AND SOUTH CENTRAL VIRGINIA...AND NORTH CENTRAL NORTH CAROLINA

CITY           SKY/WX    TMP DP  RH WIND       PRES   REMARKS
RICHMOND       PTCLDY    83  70  64 S9        29.75F
CHESTERFIELD*  PTCLDY   N/A N/A N/A S6        29.77F
HANOVER        PTCLDY    82  69  64 SW10G17   29.75F
TAPPAHANNOCK*  PTCLDY    81  68  65 S5        29.74F
CHARLOTTSVILLE CLEAR     80  69  69 SW7       29.74F
ORANGE*        CLEAR     81  70  69 S3        29.74F
LOUISA*        CLEAR     81  73  78 CALM      29.73F
FARMVILLE*     MOCLDY    81  72  74 S5        29.75S
SOUTH HILL*    MOCLDY    79  73  83 S6        29.85S
ROANOKE RAPIDS NOT AVBL
RALEIGH        CLOUDY    81  70  69 SW6       29.81R
$$

VAZ088>098-280100-
SOUTHEAST VIRGINIA

CITY           SKY/WX    TMP DP  RH WIND       PRES   REMARKS
NORFOLK        MOCLDY    81  71  71 SW9       29.78R
VIRGINIA BEACH MOCLDY    80  72  76 SW10      29.78R
NORFOLK NAVAL  MOCLDY    81  72  74 SW9       29.80S
WEST POINT*    MOCLDY    83  71  68 S6        29.77S
NEWPORT NEWS   MOCLDY    84  73  69 SW12      29.78S
LANGLEY AFB    MOCLDY    81  74  79 SW10      29.77F
FORT EUSTIS    MOCLDY    81  73  76 S8        29.77S
WILLIAMSBURG*  MOCLDY    82  73  74 S3        29.78S
FRANKLIN*      MOCLDY    79  72  78 S6        29.79F
WAKEFIELD      MOCLDY    80  73  79 VRB5      29.78S
$$

VAZ020-022-025-037-045-280100-
WESTERN AND SOUTHWEST VIRGINIA

CITY           SKY/WX    TMP DP  RH WIND       PRES   REMARKS
STAUNTON*      PTCLDY    79  67  66 S9        29.78F
HOT SPRINGS VA CLOUDY    68  61  79 W14       29.93S
LYNCHBURG      MOCLDY    78  73  84 S8        29.79F
DANVILLE       CLOUDY    81  73  76 VRB5      29.78F
MARTINSVILLE   CLOUDY    83  70  64 SW8G17    29.82S
ROANOKE        MOCLDY    82  66  58 SW6       29.82R
BLACKSBURG     MOCLDY    75  70  83 W7          N/A
DUBLIN*        MOCLDY    77  69  76 SW8       29.87S
MARION*        CLOUDY   N/A N/A N/A W17G24    29.93F
HILLSVILLE*    LGT RAIN  72  68  89 SW23G29   29.90F
RICHLANDS*     CLOUDY    73  66  78 W8        29.91F
WISE*          CLOUDY    70  68  94 S8        29.94F
ABINGDON*      CLOUDY    69  66  90 S5        29.92F
$$

MDZ021>025-VAZ099-100-280100-
SOUTHERN MARYLAND AND THE DELMARVA PENINSULA

CITY           SKY/WX    TMP DP  RH WIND       PRES   REMARKS
PATUXENT RIVER MOCLDY    80  71  74 S6        29.72S
BAY BRIDGE APT   N/A     81  72  74 S7        29.70S
LEONARDTOWN    PTCLDY    81  70  69 SW7       29.74S
DOVER          CLOUDY    79  73  82 S12       29.69S
GEORGETOWN     MOCLDY    79  70  74 S12       29.73R
EASTON         MOCLDY    82  73  74 SW7       29.75S
CAMBRIDGE      MOCLDY    81  72  74 S5        29.72S
SALISBURY      MOCLDY    81  71  71 SW8       29.73S
OCEAN CITY     MOCLDY    80  71  74 W8        29.75R
WALLOPS ISLAND MOCLDY    81  71  71 W8        29.75S
ACCOMACK*        N/A     79  72  78 SW6       29.76S
$$

NCZ012>017-030>032-280100-
EASTERN NORTH CAROLINA

CITY           SKY/WX    TMP DP  RH WIND       PRES   REMARKS
ELIZABETH CITY CLEAR     78  71  79 SW9       29.81R
AHOSKIE*       MOCLDY    77  73  87 CALM      29.81S
EDENTON*       CLEAR     81  71  72 SW6       29.82S
CURRITUCK*     CLEAR     81  68  65 SW3       29.80F
KILL DEVIL HLS CLEAR     81  69  67 SW8       29.80S
MANTEO         NOT AVBL
CAPE HATTERAS  CLEAR     81  76  84 SW6       29.84S
GOLDSBORO      PTCLDY    83  78  87 S3        29.79F
WASHINGTON     MOCLDY    81  73  78 SW3       29.83R
GREENVILLE     PTCLDY    81  73  78 S3        29.85S
NEW BERN       PTCLDY    85  75  72 SW5       29.84F
WILMINGTON     CLEAR     86  74  67 SW10      29.85F
$$

VAZ048-280100-
ELSEWHERE

CITY           SKY/WX    TMP DP  RH WIND       PRES   REMARKS
HARRISBURG PA  TSTM      68  61  78 NE9       29.65F
BALTIMORE      MOCLDY    80  70  71 SW7       29.69R
ANNAPOLIS      PTCLDY    80  70  71 S6        29.69S
ANDREWS AFB    PTCLDY    80  72  77 SW10      29.71S
WILMINGTON DE  CLOUDY    82  72  71 SW8       29.69S
PHILADELPHIA   MOCLDY    83  71  67 S13       29.68S
WILDWOOD NJ*   MOCLDY    79  68  69 SW12      29.73R
ATLANTIC CITY  PTCLDY    80  70  71 SW8       29.71R
HENDERSON NC   CLOUDY    79  72  78 S5        29.81S
GREENSBORO     CLOUDY    83  72  69 SW13G23   29.83S
ROCKY MOUNT    PTCLDY    80  74  81 CALM      29.81S
FAYETTEVILLE   MOCLDY    88  72  58 S9        29.82F
CHARLOTTE      CLOUDY    84  71  65 SW6       29.88R
$$

VAZ100-280100-
MARINE

STATION/POSITION TIME  TEMP    WIND        PRES    WAVE   SWELL
                       AIR SEA DIR/SP/G            HT/PER HT/PER
                 (UTC) (F)     (DEG/KT/KT) (MB)    (FT/S) (FT/S)
44066 TX TWR #4  0000   74 74  220/ 12/ 14 1006.1F   4/ 6   2/ 8
CAPE MAY NJ      0000   76 78  210/  7/ 10 1005.9F
LEWES DE         0000   80 72  220/  4/  8 1006.1F
15NM E FENWICK I 0000   76 74              1006.7F   2/ 5
OCEAN-CITY-INLET 0000   80 72  230/  9/ 11 1006.6R
WACHAPREAGUE VA  0000   80 81  220/  6/  8 1007.5F
THOMAS POINT MD  0000   80 80  200/ 13/ 14 1006.0F
GOOSES REEF MD   0000   81     210/ 10/ 12 1006.6S
COVE POINT MD    0000   80     190/  8/  9 1006.3S
SOLOMONS ISLAND  0000      81                N/A
BISHOPS HEAD MD  0000   81 80  190/ 10/ 13 1006.2F
PINEY POINT MD   0000          210/  9/ 11   N/A
POTOMAC MD       0000   82     230/ 12/ 16 1005.9F
CAMBRIDGE MD     0000   81 80  190/  6/  8 1006.0S
LEWISETTA VA     0000   81 81  200/  9/ 11 1006.4S
RAPPAHANNOCK LGT 0000          200/ 12/ 13 1008.2S
STINGRAY PT      0000   81     220/ 12/ 16 1008.2F
YORK RVR RNG VA  0000   81     230/ 10/ 12 1007.5R
YORKTOWN VA      0000   81 81  210/  5/  6 1007.6F
JAMESTOWN VA     0000   79     230/  6/  8   N/A
DOMINION TERM VA 0000   81     240/ 10/ 11 1008.6S
KIPTOPEKE VA     0000      82  200/  8/ 10   N/A
CHES BAY BRIDGE  0000   81 80  220/ 12/ 15 1007.8R
CAPE HENRY VA    0000   81     220/  4/  7 1007.3S
WILLOUBY STN VA  0000          230/ 12/ 14 1007.6F
S CRANEY ISL VA  0000          220/  6/  9 1008.5S
CAPE HENRY BUOY  0000      77                N/A     2/ 7
1ST LANDING BUOY 0000   81     250/  8/ 12 1008.1F
CAPE CHARLES BUO 0000      77                N/A     2/ 9
OFFSHORE WE BUOY 0000      78                N/A     2/ 6
64NM E OF VA BCH 0000   79 79  200/  8/  8 1008.4F   3/ 5   2/ 5
DUCK PIER NC     0000   81 70  240/ 11/ 14 1008.5R
44056 DUCK FRF   0000                        N/A     1/ 8
OREGON INLET NC  0000   82 82  210/ 14/ 16 1009.4F
HATTERAS NC      0000   81 83  210/  5/  6 1010.7F
DIAMOND SHLS NC  0000          VRB 16/ 19  1010.1F   3/ 4   2/ 8
CAPE LOOKOUT NC  2300   83     230/ 11/ 15 1010.7F
$$



USA.gov is the U.S. government's official web portal to all federal, state and local government web resources and services.